Weather History for Stuart, FL

Change the Weather History Date:

Saturday, November 9, 2013

  Actual Average Record
Temperature  
Mean Temperature 78 °F -  
Max Temperature 80 °F 80 °F 88 °F (1989)
Min Temperature 75 °F 64 °F 50 °F (1951)
Cooling Degree Days 12    
Growing Degree Days 28 (Base 50)    
Moisture  
Dew Point 65 °F    
Average Humidity 67    
Maximum Humidity 73    
Minimum Humidity 58    
Precipitation  
Precipitation 0.00 in - - ()
Sea Level Pressure  
Sea Level Pressure 30.11 in    
Wind  
Wind Speed 16 mph (ENE)    
Max Wind Speed 20 mph    
Max Gust Speed 28 mph    
Visibility 9 miles    
Events      
Averages and records for this station are not official NWS values.
T = Trace of Precipitation, MM = Missing Value Source: NWS Daily Summary

Daily Weather History Graph

Daily Weather History Graph

Search for Another Location

Airport:

Trip Planner

Search our weather history database for the weather conditions in past years. The results will help you decide how hot, cold, wet, or windy it might be!

Date:

Astronomy

Nov. 09, 2013 Rise Set
Actual Time 6:36 AM EST 5:32 PM EST
Civil Twilight 6:12 AM EST 5:56 PM EST
Nautical Twilight 5:44 AM EST 6:24 PM EST
Astronomical Twilight 5:16 AM EST 6:52 PM EST
Moon 12:17 PM EST (11/9) 11:53 PM EST (11/9)
Length of Visible Light 11h 44m
Length of Day
10h 55m
Waxing Crescent, 44% of the Moon is Illuminated
Nov 9
Waxing Crescent
Nov 10
First Quarter
Nov 17
Full
Nov 25
Last Quarter
Dec 2
New

Hourly Weather History & Observations

Time (EST) Temp. Heat Index Dew Point Humidity Pressure Visibility Wind Dir Wind Speed Gust Speed Precip Events Conditions
12:15 AM 77.0 °F - 64.4 °F 65% 30.07 in 10.0 mi ENE 17.3 mph 25.3 mph N/A   Overcast
12:35 AM 77.0 °F - 64.4 °F 65% 30.08 in 10.0 mi ENE 19.6 mph 23.0 mph N/A   Overcast
12:55 AM 77.0 °F - 66.2 °F 69% 30.08 in 10.0 mi ENE 16.1 mph 21.9 mph N/A   Overcast
1:15 AM 77.0 °F - 64.4 °F 65% 30.08 in 10.0 mi ENE 16.1 mph 24.2 mph N/A   Overcast
1:35 AM 77.0 °F - 66.2 °F 69% 30.07 in 10.0 mi ENE 16.1 mph 21.9 mph N/A   Overcast
1:55 AM 77.0 °F - 64.4 °F 65% 30.07 in 10.0 mi ENE 16.1 mph 23.0 mph N/A   Overcast
2:15 AM 77.0 °F - 64.4 °F 65% 30.07 in 10.0 mi ENE 15.0 mph 21.9 mph N/A   Scattered Clouds
2:35 AM 77.0 °F - 64.4 °F 65% 30.07 in 10.0 mi ENE 18.4 mph 23.0 mph N/A   Scattered Clouds
2:55 AM 77.0 °F - 64.4 °F 65% 30.07 in 10.0 mi ENE 18.4 mph 23.0 mph N/A   Mostly Cloudy
3:15 AM 77.0 °F - 64.4 °F 65% 30.07 in 10.0 mi ENE 15.0 mph 20.7 mph N/A   Overcast
3:35 AM 77.0 °F - 64.4 °F 65% 30.07 in 10.0 mi ENE 16.1 mph 24.2 mph N/A   Overcast
3:55 AM 77.0 °F - 66.2 °F 69% 30.07 in 10.0 mi ENE 16.1 mph 21.9 mph N/A   Overcast
4:15 AM 77.0 °F - 64.4 °F 65% 30.07 in 10.0 mi ENE 18.4 mph 26.5 mph N/A   Overcast
4:35 AM 77.0 °F - 64.4 °F 65% 30.07 in 10.0 mi ENE 19.6 mph 26.5 mph N/A   Overcast
4:55 AM 77.0 °F - 66.2 °F 69% 30.08 in 10.0 mi ENE 16.1 mph 24.2 mph N/A   Overcast
5:15 AM 77.0 °F - 66.2 °F 69% 30.08 in 10.0 mi ENE 19.6 mph 27.6 mph N/A   Overcast
6:47 AM 75.2 °F - 66.2 °F 73% 30.10 in 6.0 mi ENE 17.3 mph 26.5 mph N/A   Mostly Cloudy
7:47 AM 77.0 °F - 66.2 °F 69% 30.12 in 6.0 mi ENE 17.3 mph 27.6 mph N/A   Mostly Cloudy
8:50 AM 77.0 °F - 66.2 °F 69% 30.15 in 5.0 mi ENE 15.0 mph 24.2 mph N/A   Overcast
10:47 AM 77.0 °F - 66.2 °F 69% 30.16 in 5.0 mi ENE 11.5 mph 19.6 mph N/A   Overcast
11:47 AM 78.8 °F - 66.2 °F 65% 30.14 in 5.0 mi ENE 16.1 mph 23.0 mph N/A   Overcast
12:55 PM 80.6 °F 82.3 °F 64.4 °F 58% 30.12 in 5.0 mi ENE 16.1 mph 23.0 mph N/A   Overcast
1:47 PM 77.0 °F - 66.2 °F 69% 30.12 in 5.0 mi ENE 13.8 mph 20.7 mph N/A   Overcast
2:47 PM 77.0 °F - 66.2 °F 69% 30.11 in 7.0 mi ENE 13.8 mph 20.7 mph N/A   Overcast
3:47 PM 77.0 °F - 66.2 °F 69% 30.11 in 7.0 mi NE 13.8 mph 20.7 mph N/A   Overcast
4:47 PM 77.0 °F - 66.2 °F 69% 30.12 in 7.0 mi ENE 13.8 mph 20.7 mph N/A   Mostly Cloudy
5:47 PM 77.0 °F - 64.4 °F 65% 30.12 in 7.0 mi ENE 13.8 mph - N/A   Overcast
6:47 PM 77.0 °F - 64.4 °F 65% 30.13 in 7.0 mi East 13.8 mph - N/A   Overcast
7:15 PM 77.0 °F - 64.4 °F 65% 30.14 in 10.0 mi East 10.4 mph - N/A   Overcast
7:35 PM 77.0 °F - 64.4 °F 65% 30.14 in 10.0 mi ENE 9.2 mph - N/A   Overcast
7:55 PM 77.0 °F - 64.4 °F 65% 30.15 in 10.0 mi ENE 10.4 mph - N/A   Overcast
8:15 PM 77.0 °F - 64.4 °F 65% 30.15 in 10.0 mi East 11.5 mph - N/A   Overcast
8:35 PM 77.0 °F - 64.4 °F 65% 30.15 in 10.0 mi East 12.7 mph - N/A   Overcast
9:35 PM 77.0 °F - 64.4 °F 65% 30.15 in 10.0 mi East 11.5 mph 17.3 mph N/A   Overcast
9:55 PM 77.0 °F - 64.4 °F 65% 30.15 in 10.0 mi ENE 10.4 mph - N/A   Overcast
10:15 PM 77.0 °F - 64.4 °F 65% 30.15 in 10.0 mi ENE 10.4 mph - N/A   Overcast
10:35 PM 77.0 °F - 64.4 °F 65% 30.15 in 10.0 mi ENE 11.5 mph - N/A   Overcast
10:55 PM 77.0 °F - 66.2 °F 69% 30.15 in 10.0 mi ENE 12.7 mph - N/A   Overcast
11:15 PM 77.0 °F - 66.2 °F 69% 30.14 in 10.0 mi ENE 12.7 mph 17.3 mph N/A   Overcast
11:35 PM 77.0 °F - 66.2 °F 69% 30.14 in 10.0 mi ENE 11.5 mph - N/A   Overcast
11:55 PM 77.0 °F - 66.2 °F 69% 30.13 in 10.0 mi East 10.4 mph - N/A   Mostly Cloudy